Wake Island Airfield, Wake Island

5:16 AM WAKT on September 04, 2015 (GMT +1200)
Wake Island Army Air Field | | Change Station
CLOSE
Current Station
Airport
Location: Wake Island, Wake Island Army,
Elevation: 13 ft
Nearby Weather Stations

Elev 13 ft 19.28 °N, 166.64 °E | Updated 18 minutes ago

Partly Cloudy
Partly Cloudy
84 °F
Feels Like 94 °F
N
12
Wind Variable Wind from NNE

Today
High -- | Low -- °F
--% Chance of Precip.
Yesterday
High -- | Low -- °F
Precip. -- in
6:38 AM 7:06 PM
Waning Gibbous, 68% visible
Pressure 29.85 in
Visibility 6.2 miles
Clouds Few 2100 ft
Heat Index 94 °F
Dew Point 77 °F
Humidity 79%
Rainfall 0.00 in
Snow Depth Not available.
UV 0 out of 12
Pollen Not available.
Air Quality Not available.
Flu Activity Not available.
METAR PWAK 031658Z AUTO 02010KT 9999 FEW021 29/25 A2983 RMK AO2 SLP108 T02890250 $
Pressure 29.85 in
Visibility 6.2 miles
Clouds Few 2100 ft
Heat Index 94 °F
Dew Point 77 °F
Humidity 79%
Rainfall 0.00 in
Snow Depth Not available.
UV 0 out of 12
Pollen Not available.
Air Quality Not available.
Flu Activity Not available.
METAR PWAK 031658Z AUTO 02010KT 9999 FEW021 29/25 A2983 RMK AO2 SLP108 T02890250 $

10-Day Weather Forecast

×

Almanac

Astronomy

Sep. 04, 2015 Rise Set
Actual Time
Civil Twilight
Nautical Twilight
Astronomical Twilight
Moon
Length of Visible Light
Length of Day
Tomorrow will be .
, % of the Moon is Illuminated

Today's Extremes

Country Highs Country Lows

Community

WunderPhotos

Upload Photos

1,851,990 photos uploaded!

WunderBlogs® & News

Nearby

Air Quality

  Air Quality AQ Index Pollutant
Not available.

Snow Depth

Station Depth Elevation

Earthquake Activity

City Distance Mag. Time & Date
Minimum magnitude displayed is 2.5.

Coastal Water Temperatures

Place Temperature

Stations

Nearby Weather Stations

Station Location Temp. Windchill Dew Point Humidity Wind Precip. Elev Updated Type